Powrót do katalogu

COSMOS 2338

AktywnyMilitariaPO
NORAD 24726·PAYLOAD·🇷🇺 Russia

Wystrzelony Feb 14, 1997 z Plesetsk Cosmodrome

Loading…

Następne Przeloty (najbliższe 24 godziny)

TLE

ŚwieżeSource: Space-Track

Epoka: Sep 14, 2026, 05:56 UTC

1 24726U 97006B   26257.24782389  .00000017  00000-0  37067-4 0  9993
2 24726  82.6014 207.0611 0003757 247.0724 112.9971 12.61394740361703

Śledź COSMOS 2338 w czasie rzeczywistym z AllMySat

Download on the App Store